This demonstration page uses our WeatherBlox Daily Observations layout. Learn more.

Left ArrowRight Arrow

34.16533, -84.80231

Hourly Observations for November 9, 2020

Temp ( °F °C ) Dew Point ( °F °C ) Humidity (%) Winds ( mph kmh ) Pressure ( in mb ) Visibility ( mi km ) Precip ( " mm )
12:53 am 00:53 Clear 69 20.6 59 15 70 70 E 6 9 30.19 1023 10 16 0.00 0.00
1:53 am 01:53 Clear 68 20 59 15 73 73 VRB 5 7 30.18 1022 10 16 0.00 0.00
2:53 am 02:53 Mostly Clear 67 19.4 59 15 76 76 E 6 9 30.18 1022 10 16 0.00 0.00
3:53 am 03:53 Partly Cloudy 68 20 59 15 73 73 ENE 6 9 30.17 1022 10 16 0.00 0.00
4:12 am 04:12 Cloudy 68 20 60 15.6 76 76 ENE 7 11 30.18 1022 10 16 0.00 0.00
4:53 am 04:53 Cloudy 68 20 60 15.6 76 76 E 7 11 30.18 1022 10 16 0.00 0.00
5:53 am 05:53 Cloudy 68 20 61 16.1 78 78 E 6 9 30.19 1022 10 16 0.00 0.00
6:53 am 06:53 Cloudy 68 20 61 16.1 78 78 ENE 5 7 30.20 1023 10 16 0.00 0.00
7:53 am 07:53 Cloudy 68 20 60 15.6 76 76 VRB 5 7 30.22 1023 10 16 0.00 0.00
8:09 am 08:09 Cloudy 68 20 60 15.6 76 76 VRB 6 9 30.23 1024 10 16 0.00 0.00
8:53 am 08:53 Mostly Cloudy 69 20.6 61 16.1 76 76 VRB 7 11 30.22 1023 10 16 0.00 0.00
9:53 am 09:53 Cloudy 71 21.7 61 16.1 71 71 E 6 9 30.22 1023 10 16 0.00 0.00
10:43 am 10:43 Mostly Cloudy 74 23.3 61 16.1 64 64 ESE 9 15 30.21 1023 10 16 0.00 0.00
10:53 am 10:53 Cloudy 73 22.8 61 16.1 66 66 ESE 12 19 30.21 1023 10 16 0.00 0.00
11:13 am 11:13 Mostly Cloudy 74 23.3 61 16.1 64 64 E 8 13 30.20 1023 10 16 0.00 0.00
11:53 am 11:53 Mostly Cloudy 75 23.9 60 15.6 60 60 ESE 10 17 30.18 1022 10 16 0.00 0.00
12:53 pm 12:53 Mostly Cloudy 75 23.9 60 15.6 60 60 VRB 7 11 30.16 1021 10 16 0.00 0.00
1:53 pm 13:53 Mostly Cloudy 76 24.4 60 15.6 58 58 VRB 7 11 30.13 1020 10 16 0.00 0.00
2:53 pm 14:53 Mostly Cloudy 78 25.6 60 15.6 54 54 ENE 12 19 30.12 1020 10 16 0.00 0.00
3:53 pm 15:53 Mostly Cloudy 77 25 60 15.6 56 56 ENE 8 13 30.11 1020 10 16 0.00 0.00
4:53 pm 16:53 Partly Cloudy 75 23.9 60 15.6 60 60 ENE 6 9 30.11 1020 10 16 0.00 0.00
5:53 pm 17:53 Clear 72 22.2 60 15.6 66 66 VRB 5 7 30.11 1020 10 16 0.00 0.00
6:53 pm 18:53 Clear 71 21.7 60 15.6 68 68 VRB 5 7 30.11 1020 10 16 0.00 0.00
7:53 pm 19:53 Clear 69 20.6 59 15 70 70 Calm 30.12 1020 10 16 0.00 0.00
8:53 pm 20:53 Mostly Clear 69 20.6 60 15.6 73 73 E 6 9 30.12 1020 10 16 0.00 0.00
9:53 pm 21:53 Mostly Clear 69 20.6 60 15.6 73 73 E 7 11 30.12 1020 10 16 0.00 0.00
10:53 pm 22:53 Mostly Clear 69 20.6 61 16.1 76 76 E 8 13 30.11 1020 10 16 0.00 0.00
11:39 pm 23:39 Mostly Cloudy 69 20.6 61 16.1 76 76 VRB 5 7 30.13 1020 10 16 0.00 0.00
11:53 pm 23:53 Cloudy 69 20.6 61 16.1 76 76 VRB 5 7 30.11 1020 10 16 0.00 0.00

Powered by AerisWeather